Simultaneous Nadir Overpasses (SNOs) Predictions

Prediction of SNOs between NOAA-19 and NPP Satellite Orbit:

Table of predicted SNOs for the next 14.0 days since TLE Epoch: 4/13/2012
Index Date (NOAA-19) Time (NOAA-19) NOAA-19 Lat,Lon Date (NPP) Time (NPP) NPP Lat,Lon Distance(km) Time Diff (sec)
1 04/21/2012 09:00:19 80.53, -0.46 04/21/2012 09:01:29 80.54, -0.55 1.70 70
2 04/21/2012 09:51:17 -80.55, 166.53 04/21/2012 09:52:14 -80.55, 166.60 1.37 57
3 04/21/2012 10:42:20 80.44, -24.52 04/21/2012 10:42:55 80.44, -24.65 2.37 35
4 04/21/2012 11:33:18 -80.46, 142.46 04/21/2012 11:33:40 -80.45, 142.50 0.71 22
5 04/21/2012 12:24:20 80.31, -48.30 04/21/2012 12:24:20 80.32, -48.45 3.02 0
6 04/21/2012 13:15:18 -80.33, 118.68 04/21/2012 13:15:05 -80.33, 118.69 0.10 13
7 04/21/2012 14:06:25 80.30, -73.70 04/21/2012 14:05:49 80.29, -73.55 2.86 36
8 04/21/2012 14:57:17 -80.17, 95.18 04/21/2012 14:56:29 -80.17, 95.15 0.54 48




NCC Satellite Simultaneous Nadir Overpasses (SNOs) Prediction Service
